Weather History for Wildwood, NJ

Change the Weather History Date:

Saturday, December 17, 2011

  Actual Average Record
Temperature  
Mean Temperature 40 °F -  
Max Temperature 44 °F 44 °F 60 °F (2000)
Min Temperature 35 °F 31 °F 21 °F (2010)
Degree Days  
Heating Degree Days 26    
Moisture  
Dew Point 25 °F    
Average Humidity 56    
Maximum Humidity 75    
Minimum Humidity 39    
Precipitation  
Precipitation 0.00 in - - ()
Sea Level Pressure  
Sea Level Pressure 30.15 in    
Wind  
Wind Speed 8 mph (NW)    
Max Wind Speed 14 mph    
Max Gust Speed 20 mph    
Visibility 10 miles    
Events      
Averages and records for this station are not official NWS values.
T = Trace of Precipitation, MM = Missing Value Source: NWS Daily Summary

Daily Weather History Graph

Daily Weather History Graph

Search for Another Location

Airport:

Trip Planner

Search our weather history database for the weather conditions in past years. The results will help you decide how hot, cold, wet, or windy it might be!

Date:

Astronomy

Dec. 17, 2011 Rise Set
Actual Time 7:12 AM EST 4:38 PM EST
Civil Twilight 6:42 AM EST 5:08 PM EST
Nautical Twilight 6:08 AM EST 5:42 PM EST
Astronomical Twilight 5:36 AM EST 6:14 PM EST
Moon No Moon Rise 11:29 AM EST (12/17)
Length of Visible Light 10h 26m
Length of Day
9h 26m
Waning Gibbous, 54% of the Moon is Illuminated
Dec 17
Waning Gibbous
Dec 17
Last Quarter
Dec 24
New
Jan 1
First Quarter
Jan 9
Full

Hourly Weather History & Observations

Time (EST) Temp. Windchill Dew Point Humidity Pressure Visibility Wind Dir Wind Speed Gust Speed Precip Events Conditions
12:15 AM 42.8 °F 40.1 °F 26.6 °F 53% 30.15 in 10.0 mi WNW 4.6 mph - N/A   Clear
12:35 AM 42.8 °F 41.1 °F 26.6 °F 53% 30.13 in 10.0 mi NW 3.5 mph - N/A   Clear
12:55 AM 42.8 °F 40.1 °F 26.6 °F 53% 30.14 in 10.0 mi WNW 4.6 mph - N/A   Partly Cloudy
1:15 AM 42.8 °F 40.1 °F 26.6 °F 53% 30.14 in 10.0 mi WNW 4.6 mph - N/A   Mostly Cloudy
1:35 AM 42.8 °F 37.5 °F 28.4 °F 57% 30.17 in 10.0 mi WNW 9.2 mph - N/A   Scattered Clouds
1:55 AM 42.8 °F 38.0 °F 28.4 °F 57% 30.14 in 10.0 mi NW 8.1 mph - N/A   Clear
2:15 AM 42.8 °F 39.3 °F 28.4 °F 57% 30.13 in 10.0 mi NW 5.8 mph - N/A   Partly Cloudy
2:35 AM 41.0 °F 34.7 °F 26.6 °F 57% 30.14 in 10.0 mi NNW 10.4 mph - N/A   Mostly Cloudy
2:55 AM 41.0 °F 37.1 °F 24.8 °F 53% 30.13 in 10.0 mi NNW 5.8 mph - N/A   Overcast
3:15 AM 41.0 °F 35.8 °F 24.8 °F 53% 30.14 in 10.0 mi NW 8.1 mph - N/A   Overcast
3:35 AM 39.2 °F 34.2 °F 24.8 °F 56% 30.15 in 10.0 mi NW 6.9 mph - N/A   Overcast
3:55 AM 39.2 °F 33.0 °F 24.8 °F 56% 30.14 in 10.0 mi NW 9.2 mph - N/A   Overcast
4:15 AM 39.2 °F 33.6 °F 24.8 °F 56% 30.13 in 10.0 mi NW 8.1 mph - N/A   Mostly Cloudy
4:35 AM 39.2 °F 35.0 °F 24.8 °F 56% 30.13 in 10.0 mi NNW 5.8 mph - N/A   Partly Cloudy
4:55 AM 37.4 °F 32.1 °F 24.8 °F 60% 30.13 in 10.0 mi NNW 6.9 mph - N/A   Clear
5:15 AM 37.4 °F 29.8 °F 24.8 °F 60% 30.15 in 10.0 mi NW 11.5 mph 16.1 mph N/A   Clear
5:35 AM 37.4 °F 30.8 °F 24.8 °F 60% 30.16 in 10.0 mi NW 9.2 mph 16.1 mph N/A   Clear
5:55 AM 37.4 °F 30.3 °F 24.8 °F 60% 30.16 in 10.0 mi NNW 10.4 mph - N/A   Clear
6:15 AM 37.4 °F 31.4 °F 24.8 °F 60% 30.17 in 10.0 mi NW 8.1 mph - N/A   Clear
6:35 AM 37.4 °F 30.8 °F 24.8 °F 60% 30.17 in 10.0 mi NNW 9.2 mph - N/A   Clear
6:55 AM 35.6 °F 29.2 °F 24.8 °F 65% 30.17 in 10.0 mi NNW 8.1 mph - N/A   Clear
7:15 AM 35.6 °F 28.6 °F 24.8 °F 65% 30.17 in 10.0 mi NNW 9.2 mph - N/A   Clear
7:35 AM 35.6 °F 29.9 °F 24.8 °F 65% 30.18 in 10.0 mi NNW 6.9 mph - N/A   Clear
8:15 AM 37.4 °F 32.1 °F 24.8 °F 60% 30.18 in 10.0 mi NW 6.9 mph - N/A   Clear
8:35 AM 37.4 °F 29.8 °F 24.8 °F 60% 30.18 in 10.0 mi NW 11.5 mph 17.3 mph N/A   Clear
8:55 AM 39.2 °F 33.6 °F 24.8 °F 56% 30.18 in 10.0 mi NW 8.1 mph - N/A   Clear
9:15 AM 39.2 °F 32.5 °F 24.8 °F 56% 30.18 in 10.0 mi NW 10.4 mph 18.4 mph N/A   Clear
9:35 AM 39.2 °F 33.6 °F 24.8 °F 56% 30.19 in 10.0 mi NW 8.1 mph - N/A   Clear
9:55 AM 39.2 °F 32.0 °F 24.8 °F 56% 30.18 in 10.0 mi NNW 11.5 mph 19.6 mph N/A   Clear
10:15 AM 41.0 °F 33.9 °F 24.8 °F 53% 30.17 in 10.0 mi NW 12.7 mph 16.1 mph N/A   Clear
10:35 AM 41.0 °F 33.5 °F 24.8 °F 53% 30.17 in 10.0 mi NW 13.8 mph 19.6 mph N/A   Clear
10:55 AM 41.0 °F 34.3 °F 26.6 °F 57% 30.16 in 10.0 mi NNW 11.5 mph - N/A   Clear
11:15 AM 42.8 °F 38.0 °F 26.6 °F 53% 30.16 in 10.0 mi NW 8.1 mph - N/A   Clear
11:35 AM 42.8 °F 37.0 °F 24.8 °F 49% 30.14 in 10.0 mi NW 10.4 mph 17.3 mph N/A   Clear
11:55 AM 42.8 °F 37.5 °F 24.8 °F 49% 30.13 in 10.0 mi NNW 9.2 mph - N/A   Clear
12:15 PM 42.8 °F 37.5 °F 24.8 °F 49% 30.13 in 10.0 mi NW 9.2 mph 17.3 mph N/A   Clear
12:35 PM 42.8 °F 36.2 °F 23.0 °F 46% 30.12 in 10.0 mi WNW 12.7 mph 16.1 mph N/A   Partly Cloudy
12:55 PM 44.6 °F 38.8 °F 23.0 °F 43% 30.12 in 10.0 mi NW 11.5 mph 18.4 mph N/A   Partly Cloudy
1:15 PM 44.6 °F 40.2 °F 21.2 °F 39% 30.12 in 10.0 mi NW 8.1 mph - N/A   Mostly Cloudy
1:35 PM 42.8 °F 35.8 °F 23.0 °F 46% 30.12 in 10.0 mi WNW 13.8 mph 17.3 mph N/A   Overcast
1:55 PM 42.8 °F 36.6 °F 24.8 °F 49% 30.12 in 10.0 mi WNW 11.5 mph 18.4 mph N/A   Overcast
2:15 PM 42.8 °F 36.2 °F 24.8 °F 49% 30.12 in 10.0 mi WNW 12.7 mph 18.4 mph N/A   Overcast
2:35 PM 42.8 °F 37.0 °F 21.2 °F 42% 30.12 in 10.0 mi NW 10.4 mph - N/A   Overcast
2:55 PM 41.0 °F 35.8 °F 21.2 °F 45% 30.11 in 10.0 mi NNW 8.1 mph - N/A   Overcast
3:15 PM 41.0 °F 37.1 °F 23.0 °F 49% 30.10 in 10.0 mi NNW 5.8 mph - N/A   Overcast
3:35 PM 41.0 °F 35.8 °F 23.0 °F 49% 30.12 in 10.0 mi NNW 8.1 mph - N/A   Mostly Cloudy
3:55 PM 41.0 °F 36.4 °F 23.0 °F 49% 30.12 in 10.0 mi NW 6.9 mph - N/A   Overcast
4:35 PM 41.0 °F 35.2 °F 23.0 °F 49% 30.13 in 10.0 mi NNW 9.2 mph - N/A   Overcast
4:55 PM 41.0 °F 35.2 °F 24.8 °F 53% 30.14 in 10.0 mi NNW 9.2 mph - N/A   Overcast
5:35 PM 39.2 °F 35.0 °F 24.8 °F 56% 30.14 in 10.0 mi NW 5.8 mph - N/A   Overcast
5:55 PM 39.2 °F 35.9 °F 24.8 °F 56% 30.15 in 10.0 mi NNW 4.6 mph - N/A   Overcast
6:15 PM 39.2 °F 35.0 °F 24.8 °F 56% 30.16 in 10.0 mi NW 5.8 mph - N/A   Overcast
6:35 PM 39.2 °F 33.0 °F 24.8 °F 56% 30.16 in 10.0 mi NW 9.2 mph - N/A   Overcast
7:15 PM 39.2 °F 33.6 °F 24.8 °F 56% 30.18 in 10.0 mi NNW 8.1 mph - N/A   Mostly Cloudy
7:35 PM 39.2 °F 33.6 °F 24.8 °F 56% 30.18 in 10.0 mi NW 8.1 mph 18.4 mph N/A   Partly Cloudy
7:55 PM 37.4 °F 30.8 °F 26.6 °F 65% 30.19 in 10.0 mi NW 9.2 mph 17.3 mph N/A   Scattered Clouds
8:15 PM 37.4 °F 31.4 °F 26.6 °F 65% 30.19 in 10.0 mi NW 8.1 mph - N/A   Mostly Cloudy
8:35 PM 37.4 °F 30.3 °F 26.6 °F 65% 30.19 in 10.0 mi NNW 10.4 mph 16.1 mph N/A   Mostly Cloudy
8:55 PM 35.6 °F 29.9 °F 28.4 °F 75% 30.19 in 10.0 mi NW 6.9 mph - N/A   Scattered Clouds
9:15 PM 35.6 °F 29.9 °F 28.4 °F 75% 30.19 in 10.0 mi NNW 6.9 mph - N/A   Mostly Cloudy
9:35 PM 35.6 °F 29.2 °F 28.4 °F 75% 30.18 in 10.0 mi NNW 8.1 mph - N/A   Overcast
9:55 PM 35.6 °F 29.9 °F 28.4 °F 75% 30.19 in 10.0 mi North 6.9 mph - N/A   Mostly Cloudy
10:15 PM 35.6 °F 31.7 °F 28.4 °F 75% 30.18 in 10.0 mi North 4.6 mph - N/A   Mostly Cloudy
10:35 PM 35.6 °F 30.7 °F 28.4 °F 75% 30.19 in 10.0 mi North 5.8 mph - N/A   Overcast
10:55 PM 35.6 °F 30.7 °F 28.4 °F 75% 30.19 in 10.0 mi North 5.8 mph - N/A   Overcast
11:15 PM 35.6 °F 31.7 °F 28.4 °F 75% 30.18 in 10.0 mi North 4.6 mph - N/A   Mostly Cloudy
11:35 PM 33.8 °F 30.8 °F 28.4 °F 81% 30.18 in 10.0 mi NNW 3.5 mph - N/A   Partly Cloudy
11:55 PM 33.8 °F - 26.6 °F 75% 30.17 in 10.0 mi Calm Calm - N/A   Partly Cloudy